Weather History for Zapata, TX

Change the Weather History Date:

Monday, July 1, 2013

  Actual Average (KLRD) Record (KLRD)
Temperature  
Mean Temperature 84 °F 88 °F  
Max Temperature 96 °F 99 °F 110 °F (1992)
Min Temperature 73 °F 77 °F 65 °F (1908)
Degree Days  
Heating Degree Days 0 0  
Month to date heating degree days 0  
Since 1 June heating degree days 0  
Since 1 July heating degree days 0  
Cooling Degree Days 20 23  
Month to date cooling degree days 23  
Year to date cooling degree days 1826  
Since 1 June cooling degree days 683  
Growing Degree Days 34 (Base 50)    
Moisture  
Dew Point 62 °F    
Average Humidity 53    
Maximum Humidity 87    
Minimum Humidity 22    
Precipitation  
Precipitation 0.00 in 0.09 in 2.58 in (2010)
Month to date precipitation 0.09  
Year to date precipitation 9.19  
Sea Level Pressure  
Sea Level Pressure 29.91 in    
Wind  
Wind Speed 1 mph (ENE)    
Max Wind Speed 14 mph    
Max Gust Speed 20 mph    
Visibility 10 miles    
Events      
T = Trace of Precipitation, MM = Missing Value Source: NWS Daily Summary

Daily Weather History Graph

Daily Weather History Graph

Search for Another Location

Airport:

Trip Planner

Search our weather history database for the weather conditions in past years. The results will help you decide how hot, cold, wet, or windy it might be!

Date:

Astronomy

Jul. 01, 2013 Rise Set
Actual Time 6:46 AM CDT 8:35 PM CDT
Civil Twilight 6:20 AM CDT 9:01 PM CDT
Nautical Twilight 5:48 AM CDT 9:33 PM CDT
Astronomical Twilight 5:15 AM CDT 10:06 PM CDT
Moon 1:57 AM CDT (7/1) 3:08 PM CDT (7/1)
Length of Visible Light 14h 41m
Length of Day
13h 48m
Waning Crescent, 35% of the Moon is Illuminated
Jul 1
Waning Crescent
Jul 8
New
Jul 15
First Quarter
Jul 22
Full
Jul 29
Last Quarter

Hourly Weather History & Observations

Time (CDT) Temp. Heat Index Dew Point Humidity Pressure Visibility Wind Dir Wind Speed Gust Speed Precip Events Conditions
12:15 AM 76.3 °F - 68.9 °F 78% 29.89 in 10.0 mi Calm Calm - N/A   Clear
12:35 AM 76.6 °F - 68.2 °F 75% 29.89 in 10.0 mi Calm Calm - N/A   Clear
12:55 AM 76.5 °F - 68.9 °F 77% 29.89 in 10.0 mi Calm Calm - N/A   Clear
1:15 AM 76.3 °F - 69.4 °F 79% 29.88 in 10.0 mi Calm Calm - N/A   Clear
1:35 AM 76.3 °F - 69.4 °F 79% 29.87 in 10.0 mi Calm Calm - N/A   Clear
1:55 AM 75.9 °F - 69.1 °F 79% 29.87 in 10.0 mi Calm Calm - N/A   Clear
2:15 AM 75.4 °F - 68.2 °F 78% 29.87 in 10.0 mi Calm Calm - N/A   Clear
2:35 AM 75.2 °F - 68.0 °F 78% 29.87 in 10.0 mi Calm Calm - N/A   Clear
2:55 AM 74.7 °F - 67.8 °F 79% 29.86 in 10.0 mi East 3.5 mph - N/A   Clear
3:15 AM 74.7 °F - 67.8 °F 79% 29.86 in 10.0 mi Calm Calm - N/A   Clear
3:35 AM 74.8 °F - 67.8 °F 79% 29.86 in 10.0 mi Calm Calm - N/A   Clear
3:55 AM 75.2 °F - 68.0 °F 78% 29.87 in 10.0 mi Calm Calm - N/A   Clear
4:15 AM 75.0 °F - 68.5 °F 80% 29.87 in 10.0 mi Calm Calm - N/A   Clear
4:35 AM 75.6 °F - 68.7 °F 79% 29.87 in 10.0 mi Calm Calm - N/A   Clear
4:55 AM 75.6 °F - 68.5 °F 79% 29.87 in 10.0 mi NE 3.5 mph - N/A   Clear
5:15 AM 75.7 °F - 68.0 °F 77% 29.87 in 10.0 mi Calm Calm - N/A   Clear
5:35 AM 75.7 °F - 68.2 °F 77% 29.87 in 10.0 mi Calm Calm - N/A   Clear
5:55 AM 74.8 °F - 68.9 °F 82% 29.87 in 10.0 mi Calm Calm - N/A   Clear
6:15 AM 74.7 °F - 68.9 °F 82% 29.88 in 10.0 mi Calm Calm - N/A   Clear
6:35 AM 74.5 °F - 68.0 °F 80% 29.89 in 10.0 mi Calm Calm - N/A   Clear
6:55 AM 73.6 °F - 68.0 °F 83% 29.89 in 10.0 mi Calm Calm - N/A   Clear
7:15 AM 73.0 °F - 68.9 °F 87% 29.91 in 10.0 mi Calm Calm - N/A   Clear
7:35 AM 74.7 °F - 69.1 °F 83% 29.91 in 10.0 mi Calm Calm - N/A   Clear
7:55 AM 76.8 °F - 69.4 °F 78% 29.92 in 10.0 mi Calm Calm - N/A   Clear
8:15 AM 79.3 °F - 69.1 °F 71% 29.92 in 10.0 mi Calm Calm - N/A   Clear
8:35 AM 81.5 °F 84.2 °F 68.0 °F 63% 29.93 in 10.0 mi Calm Calm - N/A   Clear
8:55 AM 83.3 °F 86.2 °F 67.6 °F 59% 29.93 in 10.0 mi Calm Calm - N/A   Clear
9:15 AM 84.4 °F 86.1 °F 64.9 °F 52% 29.93 in 10.0 mi Calm Calm - N/A   Clear
9:35 AM 86.0 °F 86.8 °F 62.8 °F 46% 29.94 in 10.0 mi Calm Calm - N/A   Clear
9:55 AM 87.3 °F 88.0 °F 62.8 °F 44% 29.94 in 10.0 mi Calm Calm - N/A   Clear
10:15 AM 88.7 °F 89.1 °F 62.2 °F 41% 29.94 in 10.0 mi SE 3.5 mph - N/A   Clear
10:35 AM 89.1 °F 89.6 °F 62.2 °F 41% 29.94 in 10.0 mi South 3.5 mph - N/A   Clear
10:55 AM 90.5 °F 90.4 °F 61.0 °F 37% 29.94 in 10.0 mi Calm Calm - N/A   Clear
11:15 AM 90.0 °F 90.0 °F 61.0 °F 38% 29.94 in 10.0 mi East 3.5 mph - N/A   Mostly Cloudy
11:35 AM 89.8 °F 89.7 °F 61.2 °F 38% 29.94 in 10.0 mi Calm Calm - N/A   Scattered Clouds
11:55 AM 89.6 °F 89.5 °F 61.0 °F 38% 29.94 in 10.0 mi Calm Calm - N/A   Scattered Clouds
12:55 PM 91.0 °F 90.9 °F 60.6 °F 36% 29.94 in 10.0 mi SE 4.6 mph - N/A   Mostly Cloudy
1:15 PM 91.4 °F 91.0 °F 59.9 °F 35% 29.94 in 10.0 mi East 4.6 mph - N/A   Mostly Cloudy
1:35 PM 92.1 °F 91.4 °F 59.4 °F 33% 29.93 in 10.0 mi Calm Calm - N/A   Mostly Cloudy
2:15 PM 91.9 °F 91.2 °F 58.6 °F 33% 29.92 in 10.0 mi NE 3.5 mph - N/A   Overcast
2:35 PM 92.8 °F 91.7 °F 58.1 °F 31% 29.91 in 10.0 mi Calm Calm - N/A   Overcast
2:55 PM 93.7 °F 92.6 °F 57.7 °F 30% 29.90 in 10.0 mi Calm Calm - N/A   Scattered Clouds
3:15 PM 94.6 °F 93.2 °F 56.8 °F 28% 29.89 in 10.0 mi East 3.5 mph - N/A   Scattered Clouds
3:35 PM 95.5 °F 94.1 °F 56.3 °F 27% 29.89 in 10.0 mi ENE 5.8 mph - N/A   Scattered Clouds
3:55 PM 96.4 °F 94.6 °F 55.4 °F 25% 29.89 in 10.0 mi East 5.8 mph - N/A   Scattered Clouds
4:15 PM 96.4 °F 94.3 °F 53.8 °F 24% 29.88 in 10.0 mi NE 9.2 mph - N/A   Scattered Clouds
5:15 PM 96.4 °F - 52.0 °F 22% 29.87 in 10.0 mi Calm Calm - N/A   Clear
7:55 PM 93.9 °F 91.7 °F 54.3 °F 26% 29.87 in 10.0 mi ENE 5.8 mph - N/A   Mostly Cloudy
8:55 PM 92.7 °F - 52.0 °F 25% 29.89 in 10.0 mi NE 8.1 mph - N/A   Overcast
9:15 PM 92.1 °F - 50.5 °F 24% 29.91 in 10.0 mi NE 13.8 mph 18.4 mph N/A   Overcast
9:35 PM 91.4 °F - 50.5 °F 25% 29.92 in 10.0 mi NE 11.5 mph 16.1 mph N/A   Overcast
9:55 PM 90.5 °F - 50.4 °F 25% 29.92 in 10.0 mi NE 13.8 mph 19.6 mph N/A   Overcast
10:15 PM 88.7 °F - 49.1 °F 25% 29.94 in 10.0 mi NE 6.9 mph 17.3 mph N/A   Overcast
10:35 PM 87.8 °F - 48.7 °F 26% 29.95 in 10.0 mi ENE 6.9 mph - N/A   Overcast
10:55 PM 86.9 °F - 49.1 °F 27% 29.96 in 10.0 mi ENE 6.9 mph - N/A   Mostly Cloudy
11:15 PM 86.0 °F - 48.7 °F 27% 29.97 in 10.0 mi ENE 5.8 mph - N/A   Scattered Clouds
11:35 PM 85.5 °F - 49.6 °F 29% 29.97 in 10.0 mi NE 6.9 mph - N/A   Mostly Cloudy
11:55 PM 85.1 °F - 50.0 °F 30% 29.98 in 10.0 mi ENE 4.6 mph - N/A   Scattered Clouds